Dewpoint
56 39 42 43 34 35 28 32 39 36 35 32 32 33 32 31 30 33 56 59 59 59 60 69 73 72 71 70 68 67 66 64 62 61 59 59 59 59 60 62 62 60 58 59 61 62 62 63 64
47 35 43 41 26 25 24 35 38 38 32 32 32 33 32 30 35 43 51 59 60 59 60 64 72 72 71 70 69 67 66 64 62 61 60 59 62 59 60 60 60 61 61 60 60 61 60 62 62
42 34 35 34 32 23 28 35 31 29 32 32 33 30 30 32 35 43 55 59 60 60 61 65 73 72 71 70 69 68 66 65 63 61 63 63 65 62 61 59 60 60 59 60 60 59 61 62 62
42 39 33 26 18 23 31 32 27 31 33 34 33 31 31 38 41 51 56 59 59 60 62 69 73 72 72 70 70 68 67 65 64 64 62 63 65 65 63 63 61 59 60 60 60 60 60 61 61
43 37 33 31 31 25 24 27 27 31 32 34 35 34 33 43 51 53 58 59 58 60 62 64 72 71 71 70 69 68 67 65 65 63 63 64 65 67 64 65 62 60 60 60 60 61 61 61 60
41 38 31 31 32 32 33 30 30 31 33 34 33 32 35 45 49 54 59 59 60 61 64 63 70 72 72 70 70 68 68 67 65 63 63 64 66 67 66 65 63 61 61 61 59 62 63 63 62
42 37 33 33 31 32 32 28 29 32 33 33 33 32 33 40 51 56 59 59 62 62 64 63 64 69 72 71 70 70 69 67 66 64 63 65 65 66 66 64 63 63 63 62 62 62 63 63 63
43 39 34 34 30 33 33 28 37 35 33 35 33 32 33 43 47 55 58 60 61 64 64 64 64 65 65 66 70 69 69 68 67 67 67 66 66 65 64 65 64 64 64 64 62 62 61 62 63
42 37 33 34 34 32 31 35 39 39 37 34 34 33 36 46 49 53 54 57 60 62 64 65 64 65 65 65 65 68 68 68 67 66 66 64 58 60 60 63 64 64 64 63 63 63 62 64 64
42 38 35 36 36 35 35 38 40 39 36 35 32 34 35 37 41 45 47 49 54 57 61 63 64 64 65 65 65 64 63 63 61 61 60 58 57 59 61 62 64 64 65 65 64 64 63 63 57
43 38 38 38 38 37 39 39 41 40 39 35 34 33 35 36 37 39 41 48 50 53 57 62 64 65 65 65 64 63 63 62 62 62 61 59 58 58 59 59 59 59 62 59 59 59 57 57 57
41 41 39 40 41 41 40 41 41 42 42 40 40 40 37 35 34 35 38 45 50 52 54 57 61 64 65 65 64 63 63 62 61 61 61 60 59 59 59 58 59 59 59 59 59 58 58 58 58
43 40 41 41 42 42 43 42 41 41 41 41 41 38 36 34 34 36 47 50 51 52 54 55 58 61 64 65 64 64 62 62 61 62 61 61 61 60 60 60 60 60 60 59 59 59 58 58 58
43 42 41 41 42 42 42 41 40 39 39 37 36 36 35 36 39 43 46 49 50 49 49 51 54 57 60 63 64 63 62 62 62 62 62 61 61 61 61 61 60 60 60 60 59 59 59 59 59
44 42 42 42 42 41 42 39 37 38 31 32 32 33 39 41 42 44 45 45 46 46 48 48 50 53 58 61 62 62 62 62 62 62 61 61 61 61 61 61 61 60 60 60 60 59 59 59 58
45 44 39 39 42 42 38 35 36 32 31 30 31 35 40 41 41 43 44 45 45 46 48 51 51 52 56 59 61 60 61 61 61 60 60 60 60 60 61 60 60 60 60 59 58 58 57 57 57
44 39 38 37 41 40 37 34 31 31 32 31 31 36 38 40 41 43 43 44 44 46 50 51 52 54 56 58 58 58 58 58 59 59 60 60 60 60 60 58 56 55 55 55 55 55 55 55 55
38 37 36 36 36 35 33 35 33 32 31 31 32 36 38 39 40 42 42 44 45 48 51 53 55 56 57 58 58 59 59 58 55 52 50 50 46 48 49 46 45 45 46 45 45 45 46 47 48
35 36 36 36 35 34 36 36 32 35 33 32 32 35 37 38 40 41 42 43 44 46 49 53 56 57 57 58 56 53 50 47 46 45 43 42 41 40 42 41 40 41 41 41 41 42 42 41 42
37 35 35 34 35 34 36 36 37 35 32 32 32 35 37 38 38 41 42 42 43 44 45 48 52 55 57 57 53 49 47 46 45 44 42 41 39 38 38 39 39 40 40 40 40 41 41 39 40
38 35 33 34 36 36 33 33 33 28 28 29 32 36 37 37 38 39 41 42 43 44 45 45 48 48 48 47 47 47 47 46 44 42 40 38 36 34 35 35 34 35 36 36 37 36 37 36 36
36 38 37 37 39 34 33 29 31 29 28 30 35 36 37 39 39 40 41 42 43 46 47 46 46 46 46 46 45 44 42 40 40 38 37 35 33 29 27 28 29 30 30 32 32 30 33 35 34
36 40 39 38 38 36 34 29 28 27 26 29 34 36 38 39 40 41 42 43 44 46 47 45 44 43 43 43 42 40 39 38 37 34 32 30 29 26 23 23 26 25 26 27 29 29 31 32 30
40 37 37 35 34 32 31 29 27 25 24 28 34 36 38 39 40 41 42 43 44 46 46 45 42 41 41 40 39 39 37 33 31 29 24 22 20 21 21 21 23 23 24 24 25 27 32 31 27
39 38 36 34 32 29 27 27 26 27 26 28 33 36 38 40 40 41 41 42 43 45 45 42 40 38 38 37 35 33 32 29 25 21 18 16 14 18 19 21 20 20 21 21 23 24 29 28 26
38 37 30 26 27 26 27 26 23 26 28 28 32 36 38 39 40 40 42 43 43 44 42 40 38 37 34 32 29 26 25 22 18 17 15 13 14 15 18 18 18 18 17 18 18 20 22 22 23
40 38 33 28 28 26 26 28 29 29 29 30 31 36 38 39 40 40 42 42 42 41 40 39 37 35 31 28 24 20 17 17 16 14 14 14 14 12 15 16 16 16 16 16 17 15 17 18 19
39 39 33 31 26 24 25 26 25 26 27 29 30 35 38 39 39 40 41 42 41 39 38 36 34 32 28 24 18 16 12 11 11 12 12 13 12 13 14 14 13 14 13 13 14 15 15 15 18
36 38 37 32 28 24 22 24 26 27 27 29 30 34 38 39 39 39 40 41 39 36 36 33 32 29 24 19 14 13 11 9 8 8 9 11 12 12 12 12 12 11 10 11 11 12 12 14 17
36 34 34 31 27 26 25 24 26 27 28 29 31 34 37 38 39 39 40 40 36 34 32 31 30 27 22 15 11 10 10 10 8 8 9 9 9 11 11 11 10 9 9 10 10 11 12 15 16
Lifted_Index
5 6 6 6 5 5 4 4 2 2 2 2 2 1 1 1 1 1 -0 -1 -1 -1 -2 -4 -5 -4 -4 -3 -1 0 1 3 4 5 5 5 5 5 4 4 5 5 6 6 6 6 6 5 5
5 6 6 6 5 5 4 3 2 2 2 2 2 1 1 1 1 1 -0 -1 -1 -1 -2 -3 -5 -4 -4 -3 -1 -0 1 2 4 4 5 4 4 4 4 4 5 5 6 6 6 6 6 6 5
5 5 5 5 6 5 4 3 2 2 2 2 2 1 1 1 1 1 -0 -1 -2 -2 -2 -3 -4 -4 -4 -3 -2 -1 0 2 3 4 4 3 3 3 4 4 5 5 5 6 6 7 7 6 6
5 5 5 5 5 6 5 4 3 2 2 2 1 1 1 1 1 0 -1 -2 -2 -2 -2 -3 -4 -4 -4 -3 -2 -1 0 1 2 3 3 3 2 2 3 4 4 5 5 6 6 7 7 7 6
5 5 4 4 5 6 6 5 4 3 2 2 1 1 1 1 0 -0 -1 -2 -2 -2 -2 -3 -4 -4 -4 -3 -2 -1 -0 1 2 2 3 3 2 2 2 3 4 5 5 6 6 6 6 6 6
4 4 4 4 4 5 5 6 5 3 3 3 2 1 1 1 0 -1 -2 -2 -2 -2 -2 -2 -3 -4 -4 -3 -2 -1 -0 0 1 2 3 3 2 2 2 3 4 4 5 5 6 6 6 5 5
4 4 4 4 4 4 5 6 5 4 4 3 2 1 1 1 1 -1 -2 -3 -3 -3 -2 -2 -2 -3 -3 -3 -2 -1 -1 0 1 2 3 3 3 3 2 3 3 4 4 5 5 6 5 5 5
4 4 4 4 4 4 5 5 5 4 4 4 3 2 2 2 1 0 -1 -2 -2 -2 -2 -2 -2 -2 -2 -2 -1 -1 -0 0 1 2 2 3 3 3 3 3 4 4 4 4 5 6 6 5 5
3 4 4 4 4 4 4 4 4 4 4 4 3 3 3 3 2 1 -0 -1 -1 -2 -2 -2 -2 -2 -2 -1 -1 -1 0 1 1 2 3 3 4 4 4 4 4 4 4 4 5 5 5 5 5
3 3 4 4 4 4 4 4 4 4 3 3 3 3 3 3 3 2 1 0 -0 -1 -1 -2 -2 -2 -2 -1 -1 -0 0 1 2 2 3 4 4 4 4 4 4 4 4 4 5 5 5 5 5
3 3 3 3 4 4 4 3 3 3 3 3 3 3 3 3 3 2 2 1 1 0 -0 -1 -1 -2 -2 -2 -1 -0 0 1 1 2 2 3 4 4 4 4 4 4 4 4 5 5 5 5 5
2 3 3 3 3 4 3 3 3 3 3 3 3 3 3 3 3 3 2 2 1 1 1 0 -1 -1 -2 -2 -1 -1 0 1 1 1 2 2 3 3 3 4 4 4 4 4 4 4 4 5 5
2 2 3 3 3 3 3 3 3 3 3 3 3 3 3 3 3 3 2 2 1 1 2 2 1 -0 -1 -1 -1 -1 -0 0 1 1 1 2 2 3 3 3 3 4 4 4 4 4 4 4 4
1 2 2 2 2 3 3 3 3 3 3 4 4 4 4 4 4 4 3 2 2 2 3 3 3 1 0 -1 -1 -1 0 0 1 1 2 2 2 3 3 3 3 3 3 3 3 3 3 3 4
1 1 2 2 2 3 3 3 3 4 5 6 5 5 5 4 4 4 4 3 3 4 4 4 4 3 1 -0 -0 0 1 1 1 1 2 2 2 3 3 3 3 3 3 3 3 3 4 4 4
-0 1 1 2 2 2 3 3 3 5 6 6 6 5 5 5 5 5 4 4 4 5 5 5 5 3 2 1 1 1 1 2 2 2 2 3 3 3 3 3 3 3 3 4 4 4 4 4 5
-0 1 1 1 2 3 3 3 4 5 6 6 6 5 5 5 5 4 5 5 5 6 5 5 4 3 2 1 1 2 2 2 3 3 3 3 3 4 4 4 5 6 6 6 6 6 6 6 6
0 1 1 2 2 3 4 3 4 5 5 6 5 5 5 4 4 5 5 6 6 6 5 4 3 3 2 1 2 2 3 3 3 3 4 4 5 7 7 8 9 9 10 10 10 10 10 9 9
1 1 1 2 3 3 3 3 3 4 5 6 6 5 5 5 5 5 6 7 7 7 6 5 4 3 2 2 2 3 3 4 4 5 6 7 9 10 11 11 12 12 12 12 12 12 12 12 12
1 1 1 2 2 3 3 2 3 4 5 6 6 5 5 5 5 6 7 7 7 8 7 6 5 4 3 3 4 5 5 5 6 8 9 10 11 12 12 13 13 13 13 13 14 14 14 14 14
1 1 1 1 2 2 2 2 3 4 5 6 6 6 5 6 6 7 7 7 8 8 8 8 7 7 6 6 7 7 7 8 9 10 11 12 12 12 13 13 13 14 14 15 16 16 16 16 16
1 1 1 1 1 2 2 2 3 4 5 6 6 6 6 6 7 7 7 8 8 9 8 8 8 8 8 8 9 9 9 9 10 11 12 12 12 12 13 14 15 16 17 17 18 19 18 18 18
1 1 1 1 1 2 2 2 3 3 5 6 7 7 7 7 7 8 8 8 8 9 8 8 8 9 9 9 9 9 9 10 11 11 11 11 12 13 14 15 17 18 19 20 20 20 19 19 19
1 1 1 1 1 2 2 2 3 3 5 6 7 7 7 7 7 8 8 8 8 8 8 8 8 8 9 9 9 9 10 10 11 11 11 11 12 14 15 17 19 20 21 21 21 21 20 19 19
1 1 1 1 1 1 2 2 3 4 5 6 6 7 7 7 8 8 8 8 7 7 8 8 8 8 9 9 9 9 10 10 11 11 11 12 13 15 17 19 20 21 22 22 22 21 20 20 20
1 1 1 1 1 1 2 3 3 4 5 5 6 7 7 7 8 8 7 7 7 7 7 7 8 8 8 9 9 10 10 10 11 11 12 13 15 17 19 21 21 22 22 22 21 21 21 21 21
1 1 1 1 1 1 2 3 3 4 4 5 5 6 7 7 7 8 7 7 7 7 7 7 7 8 8 9 9 10 10 11 11 12 13 15 17 19 21 22 22 22 22 22 21 21 21 21 21
1 1 1 1 1 1 2 2 3 4 4 4 5 6 7 7 7 7 7 6 6 7 7 7 7 8 8 9 10 11 11 11 12 13 15 17 19 21 21 22 22 21 21 21 21 21 21 21 21
1 1 1 1 2 1 2 2 3 4 4 4 5 5 6 7 7 7 6 6 6 6 7 7 7 8 9 10 11 11 12 12 13 14 16 18 20 21 22 22 21 21 21 21 21 21 21 21 21
1 1 1 2 2 2 2 3 4 5 5 5 5 5 6 7 7 6 6 5 6 6 7 7 7 8 9 11 12 12 12 13 13 15 16 19 20 21 22 22 21 21 21 21 21 21 21 21 21